Weather History for Los Angeles, CA

Change the Weather History Date:

Thursday, February 21, 2013

  Actual Average Record
Temperature  
Mean Temperature 53 °F 57 °F  
Max Temperature 61 °F 64 °F 89 °F (2002)
Min Temperature 45 °F 50 °F 40 °F (1953)
Degree Days  
Heating Degree Days 12 8  
Month to date heating degree days 189 168  
Since 1 July heating degree days 811 872  
Cooling Degree Days 0 0  
Month to date cooling degree days 2 0  
Year to date cooling degree days 8 4  
Growing Degree Days 3 (Base 50)    
Moisture  
Dew Point 39 °F    
Average Humidity 56    
Maximum Humidity 71    
Minimum Humidity 41    
Precipitation  
Precipitation 0.00 in 0.13 in 1.18 in (2000)
Month to date precipitation 0.20 2.47  
Year to date precipitation 1.50 5.18  
Since 1 July precipitation 5.78 9.19  
Sea Level Pressure  
Sea Level Pressure 30.03 in    
Wind  
Wind Speed 8 mph (North)    
Max Wind Speed 21 mph    
Max Gust Speed 24 mph    
Visibility 10 miles    
Events      
T = Trace of Precipitation, MM = Missing Value Source: NWS Daily Summary

Daily Weather History Graph

Daily Weather History Graph

Search for Another Location

Airport:

Trip Planner

Search our weather history database for the weather conditions in past years. The results will help you decide how hot, cold, wet, or windy it might be!

Date:

Astronomy

Feb. 21, 2013 Rise Set
Actual Time 6:31 AM PST 5:43 PM PST
Civil Twilight 6:05 AM PST 6:08 PM PST
Nautical Twilight 5:36 AM PST 6:37 PM PST
Astronomical Twilight 5:07 AM PST 7:06 PM PST
Moon 2:09 PM PST 3:32 AM PST
Length of Visible Light 12h 02m
Length of Day
11h 12m
Waxing Gibbous, 84% of the Moon is Illuminated
Feb 21
Waxing Gibbous
Feb 25
Full
Mar 4
Last Quarter
Mar 11
New
Mar 19
First Quarter

Hourly Weather History & Observations

Time (PST) Temp. Windchill Dew Point Humidity Pressure Visibility Wind Dir Wind Speed Gust Speed Precip Events Conditions
12:53 AM 52.0 °F - 37.9 °F 59% 30.01 in 10.0 mi Variable 3.5 mph - N/A   Partly Cloudy
1:53 AM 48.9 °F - 37.9 °F 66% 30.01 in 10.0 mi NNE 4.6 mph - N/A   Partly Cloudy
2:53 AM 46.9 °F - 37.9 °F 71% 30.00 in 10.0 mi NE 3.5 mph - N/A   Partly Cloudy
3:53 AM 46.9 °F - 37.9 °F 71% 30.01 in 10.0 mi ENE 5.8 mph - N/A   Clear
4:53 AM 46.0 °F 43.1 °F 37.9 °F 73% 30.01 in 10.0 mi NE 5.8 mph - N/A   Clear
5:53 AM 46.0 °F 43.1 °F 37.0 °F 71% 30.01 in 10.0 mi ENE 5.8 mph - N/A   Partly Cloudy
6:53 AM 46.9 °F - 37.9 °F 71% 30.02 in 10.0 mi ENE 8.1 mph - N/A   Scattered Clouds
7:48 AM 48.2 °F - 37.4 °F 66% 30.05 in 10.0 mi NE 10.4 mph - N/A   Mostly Cloudy
7:53 AM 50.0 °F - 37.9 °F 63% 30.04 in 10.0 mi ENE 9.2 mph - N/A   Mostly Cloudy
8:53 AM 53.1 °F - 41.0 °F 64% 30.05 in 10.0 mi East 11.5 mph - N/A   Mostly Cloudy
9:33 AM 55.4 °F - 42.8 °F 63% 30.07 in 10.0 mi ENE 3.5 mph - N/A   Mostly Cloudy
9:53 AM 55.9 °F - 42.1 °F 60% 30.06 in 10.0 mi Variable 5.8 mph - N/A   Mostly Cloudy
10:53 AM 57.0 °F - 39.0 °F 51% 30.04 in 10.0 mi East 8.1 mph - N/A   Mostly Cloudy
11:53 AM 60.1 °F - 37.0 °F 42% 30.01 in 10.0 mi Variable 3.5 mph - N/A   Mostly Cloudy
12:53 PM 60.1 °F - 39.9 °F 47% 30.00 in 10.0 mi SSW 9.2 mph - N/A   Mostly Cloudy
1:53 PM 60.1 °F - 39.9 °F 47% 29.99 in 10.0 mi SSW 3.5 mph - N/A   Mostly Cloudy
2:53 PM 57.9 °F - 44.1 °F 60% 30.00 in 10.0 mi West 17.3 mph - N/A   Scattered Clouds
3:53 PM 57.0 °F - 41.0 °F 55% 29.99 in 10.0 mi West 10.4 mph - N/A   Partly Cloudy
4:53 PM 55.9 °F - 43.0 °F 62% 30.01 in 10.0 mi West 18.4 mph - N/A   Partly Cloudy
5:53 PM 55.0 °F - 39.9 °F 57% 30.02 in 10.0 mi West 17.3 mph - N/A   Clear
6:53 PM 55.0 °F - 45.0 °F 69% 30.04 in 10.0 mi WNW 13.8 mph - N/A   Clear
7:53 PM 57.0 °F - 36.0 °F 45% 30.07 in 10.0 mi NW 8.1 mph - N/A   Clear
8:53 PM 55.0 °F - 34.0 °F 45% 30.08 in 10.0 mi West 9.2 mph - N/A   Clear
9:53 PM 55.0 °F - 33.1 °F 43% 30.08 in 10.0 mi North 3.5 mph - N/A   Clear
10:53 PM 54.0 °F - 33.1 °F 45% 30.09 in 10.0 mi West 8.1 mph - N/A   Clear
11:53 PM 55.9 °F - 30.9 °F 39% 30.09 in 10.0 mi Variable 3.5 mph - N/A   Clear